Location: ????????
(55.8351°N, 38.7040°E)
Time: 02:36:09
(UTC+00:00)

Cosmos 2322 Rocket - Pass Details

Date: 14 April 2024
Orbit: 833 x 849 km, 71.0° (Epoch: 18 May)

Event Time Altitude Azimuth Distance (km) Brightness Sun altitude
Exits shadow 00:19:15 18° 258° (WSW) 1,957 3.6 -15.4°
Maximum altitude 00:23:01 40° 319° (NW) 1,228 3.1 -15.0°
Drops below altitude 10° 00:28:18 10° 29° (NNE) 2,456 5.8 -14.5°
Sets 00:30:55 0° 37° (NE) 3,393 7.1 -14.2°
